Location: Biltmore Gardens
(41.6070°N, 83.4666°W)
Time: 20:08:00
(UTC+00:00)

Transit 4A - Visible Passes

Search period start: 17 April 2021 00:00
Search period end: 27 April 2021 00:00
Orbit: 869 x 975 km, 66.8° (Epoch: 17 April)

Date Brightness Start Highest point End Pass type
(mag) Time Alt. Az. Time Alt. Az. Time Alt. Az.
17 Apr 9.2 05:44:04 34° NNE 05:44:04 34° NNE 05:47:22 10° NNE visible
17 Apr 9.7 07:27:32 20° NW 07:28:20 20° NW 07:32:45 10° N visible
18 Apr 9.0 05:52:47 40° N 05:52:47 40° N 05:56:38 10° NNE visible
18 Apr 10.0 07:36:15 13° NW 07:38:05 15° NW 07:41:30 10° N visible
19 Apr 10.0 04:17:57 15° NE 04:17:57 15° NE 04:19:08 10° NE visible
19 Apr 9.0 06:01:26 39° NNW 06:01:26 39° NNW 06:05:49 10° NNE visible
19 Apr 10.3 07:46:01 10° NW 07:47:56 11° NNW 07:49:49 10° NNW visible
20 Apr 9.6 04:26:34 22° NE 04:26:34 22° NE 04:28:47 10° NE visible
20 Apr 9.2 06:10:02 32° NW 06:10:02 32° NW 06:14:55 10° NNE visible
21 Apr 9.2 04:35:06 32° NE 04:35:06 32° NE 04:38:15 10° NE visible
21 Apr 9.6 06:18:34 24° NW 06:19:02 24° NW 06:23:55 10° N visible
22 Apr 8.8 04:43:34 44° NNE 04:43:34 44° NNE 04:47:35 10° NNE visible
22 Apr 10.0 06:27:01 16° WNW 06:28:43 18° NW 06:32:48 10° N visible
23 Apr 9.8 03:08:28 15° ENE 03:08:28 15° ENE 03:09:42 10° NE visible
23 Apr 8.6 04:51:56 50° NNW 04:51:56 50° NNW 04:56:50 10° NNE visible
23 Apr 10.3 06:35:32 10° WNW 06:38:30 14° NW 06:41:26 10° N visible
24 Apr 9.3 03:16:43 25° ENE 03:16:43 25° ENE 03:19:31 10° NE visible
24 Apr 8.9 05:00:09 40° NW 05:00:15 40° NW 05:05:59 10° NNE visible
24 Apr 10.6 06:47:39 10° NW 06:48:22 10° NNW 06:49:06 10° NNW visible
25 Apr 8.5 03:24:47 42° ENE 03:24:47 42° ENE 03:29:05 10° NE visible
25 Apr 9.5 05:08:13 26° WNW 05:09:46 29° NW 05:15:02 10° NNE visible
26 Apr 7.8 03:32:35 79° E 03:32:35 79° E 03:38:30 10° NNE visible
26 Apr 9.9 05:15:59 14° W 05:19:24 22° NW 05:24:00 10° N visible
